When you browse on this site, cookies collect data to enhance your experience and personalize the content and advertising you see.
Visit our Privacy Policy to learn more. By continuing to use the site, you agree to this use of cookies and data.
  • In United Kingdom
  • List of Countries
  • For 7 days
  • Water Temperature
  • Weather Map
  • Weather Widgets
  • user-avatar
    Login

    Hourly Weather Ibigs

    Today, 7 December, Saturday

    Time Temperature Precipitation Wind Pressure Humidity
    00:00 +20°C° 0.8 mm 1 mps 649 mmHg 89%
    01:00 +20°C° 0.8 mm 1 mps 648 mmHg 89%
    02:00 +20°C° 0.9 mm 1 mps 648 mmHg 89%
    03:00 +20°C° 0.9 mm 1 mps 648 mmHg 89%
    04:00 +20°C° 0.9 mm 1 mps 648 mmHg 90%
    05:00 +20°C° 0.2 mm 1 mps 648 mmHg 89%
    06:00 +18°C° 0.2 mm 0 mps 649 mmHg 88%
    07:00 +19°C° 0.2 mm 0 mps 649 mmHg 87%
    08:00 +22°C° 0.4 mm 1 mps 649 mmHg 85%
    09:00 +23°C° 0.4 mm 1 mps 650 mmHg 84%
    10:00 +24°C° 0.4 mm 1 mps 650 mmHg 82%
    11:00 +24°C° 0.8 mm 1 mps 649 mmHg 84%
    12:00 +24°C° 0.8 mm 1 mps 649 mmHg 85%
    13:00 +24°C° 0.8 mm 1 mps 648 mmHg 86%
    14:00 +24°C° 1.2 mm 1 mps 648 mmHg 85%
    15:00 +24°C° 1.2 mm 1 mps 647 mmHg 85%
    16:00 +22°C° 1.2 mm 0 mps 647 mmHg 84%
    17:00 +23°C° 1 mm 1 mps 647 mmHg 86%
    18:00 +22°C° 1 mm 1 mps 647 mmHg 89%
    19:00 +21°C° 1 mm 1 mps 647 mmHg 91%
    20:00 +21°C° 0.6 mm 1 mps 648 mmHg 90%
    21:00 +20°C° 0.6 mm 1 mps 648 mmHg 89%
    22:00 +20°C° 0.6 mm 1 mps 649 mmHg 88%
    23:00 +20°C° 0.4 mm 1 mps 648 mmHg 88%

    Tomorrow, 8 December, Sunday

    Time Temperature Precipitation Wind Pressure Humidity
    00:00 +20°C° 0.4 mm 1 mps 648 mmHg 88%
    01:00 +20°C° 0.4 mm 1 mps 648 mmHg 89%
    02:00 +20°C° 0.6 mm 1 mps 648 mmHg 89%
    03:00 +20°C° 0.6 mm 1 mps 648 mmHg 90%
    04:00 +20°C° 0.6 mm 1 mps 647 mmHg 91%
    05:00 +20°C° 0.5 mm 1 mps 648 mmHg 91%
    06:00 +18°C° 0.5 mm 0 mps 648 mmHg 91%
    07:00 +18°C° 0.5 mm 0 mps 649 mmHg 92%
    08:00 +21°C° 0.4 mm 1 mps 649 mmHg 89%
    09:00 +22°C° 0.4 mm 1 mps 649 mmHg 87%
    10:00 +23°C° 0.4 mm 1 mps 650 mmHg 85%
    11:00 +23°C° 0.7 mm 1 mps 649 mmHg 84%
    12:00 +24°C° 0.7 mm 1 mps 648 mmHg 84%
    13:00 +24°C° 0.7 mm 2 mps 648 mmHg 83%
    14:00 +24°C° 1.3 mm 2 mps 647 mmHg 83%
    15:00 +24°C° 1.3 mm 2 mps 647 mmHg 82%
    16:00 +24°C° 1.3 mm 1 mps 647 mmHg 82%
    17:00 +23°C° 0.6 mm 1 mps 647 mmHg 84%
    18:00 +22°C° 0.6 mm 1 mps 647 mmHg 87%
    19:00 +20°C° 0.6 mm 1 mps 647 mmHg 89%
    20:00 +20°C° 0.3 mm 1 mps 647 mmHg 89%
    21:00 +20°C° 0.3 mm 1 mps 648 mmHg 88%
    22:00 +20°C° 0.3 mm 1 mps 648 mmHg 88%
    23:00 +20°C° 0.3 mm 1 mps 648 mmHg 89%

    Day after tomorrow, 9 December, Monday

    Time Temperature Precipitation Wind Pressure Humidity
    00:00 +20°C° 0.3 mm 1 mps 648 mmHg 90%
    01:00 +19°C° 0.3 mm 1 mps 647 mmHg 90%
    02:00 +19°C° 0.2 mm 1 mps 647 mmHg 91%
    03:00 +17°C° 0.2 mm 0 mps 647 mmHg 92%
    04:00 +17°C° 0.2 mm 0 mps 647 mmHg 92%
    05:00 +17°C° 0 mm 0 mps 647 mmHg 92%
    06:00 +18°C° 0 mm 0 mps 648 mmHg 91%
    07:00 +18°C° 0 mm 0 mps 648 mmHg 90%
    08:00 +19°C° 0.1 mm 0 mps 648 mmHg 87%
    09:00 +22°C° 0.1 mm 1 mps 649 mmHg 84%
    10:00 +23°C° 0.1 mm 1 mps 649 mmHg 81%
    11:00 +24°C° 0.4 mm 1 mps 648 mmHg 82%
    12:00 +24°C° 0.4 mm 1 mps 648 mmHg 82%
    13:00 +24°C° 0.4 mm 1 mps 647 mmHg 82%
    14:00 +24°C° 0.9 mm 1 mps 647 mmHg 82%
    15:00 +24°C° 0.9 mm 1 mps 646 mmHg 81%
    16:00 +22°C° 0.9 mm 0 mps 646 mmHg 80%
    17:00 +23°C° 0.5 mm 1 mps 646 mmHg 84%
    18:00 +22°C° 0.5 mm 1 mps 646 mmHg 87%
    19:00 +21°C° 0.5 mm 1 mps 646 mmHg 90%
    20:00 +20°C° 0.5 mm 1 mps 647 mmHg 89%
    21:00 +20°C° 0.5 mm 1 mps 647 mmHg 89%
    22:00 +20°C° 0.5 mm 1 mps 648 mmHg 88%
    23:00 +20°C° 0.2 mm 1 mps 647 mmHg 88%

    10 December, Tuesday

    Time Temperature Precipitation Wind Pressure Humidity
    00:00 +20°C° 0.2 mm 1 mps 647 mmHg 88%
    01:00 +20°C° 0.2 mm 1 mps 647 mmHg 89%
    02:00 +19°C° 0.3 mm 1 mps 647 mmHg 89%
    03:00 +17°C° 0.3 mm 0 mps 646 mmHg 90%
    04:00 +17°C° 0.3 mm 0 mps 646 mmHg 90%
    05:00 +18°C° 0.2 mm 0 mps 647 mmHg 89%
    06:00 +18°C° 0.2 mm 0 mps 647 mmHg 88%
    07:00 +18°C° 0.2 mm 0 mps 648 mmHg 87%
    08:00 +20°C° 0.1 mm 0 mps 648 mmHg 84%
    09:00 +23°C° 0.1 mm 1 mps 649 mmHg 82%
    10:00 +24°C° 0.1 mm 1 mps 649 mmHg 79%
    11:00 +24°C° 0.6 mm 1 mps 648 mmHg 80%
    12:00 +25°C° 0.6 mm 1 mps 648 mmHg 82%
    13:00 +25°C° 0.6 mm 1 mps 647 mmHg 83%
    14:00 +25°C° 0.4 mm 1 mps 647 mmHg 83%
    15:00 +25°C° 0.4 mm 1 mps 646 mmHg 83%
    16:00 +24°C° 0.4 mm 1 mps 646 mmHg 83%
    17:00 +23°C° 0.8 mm 1 mps 646 mmHg 86%
    18:00 +22°C° 0.8 mm 1 mps 646 mmHg 88%
    19:00 +21°C° 0.8 mm 1 mps 647 mmHg 91%
    20:00 +21°C° 1 mm 1 mps 647 mmHg 91%
    21:00 +20°C° 1 mm 1 mps 648 mmHg 91%
    22:00 +20°C° 1 mm 1 mps 648 mmHg 91%
    23:00 +20°C° 0.8 mm 1 mps 648 mmHg 91%

    11 December, Wednesday

    Time Temperature Precipitation Wind Pressure Humidity
    00:00 +20°C° 0.8 mm 1 mps 648 mmHg 91%
    01:00 +20°C° 0.8 mm 1 mps 647 mmHg 91%
    02:00 +20°C° 0.8 mm 1 mps 647 mmHg 92%
    03:00 +20°C° 0.8 mm 1 mps 647 mmHg 92%
    04:00 +20°C° 0.8 mm 1 mps 647 mmHg 93%
    05:00 +18°C° 0.5 mm 0 mps 647 mmHg 93%
    06:00 +18°C° 0.5 mm 0 mps 647 mmHg 93%
    07:00 +18°C° 0.5 mm 0 mps 648 mmHg 93%
    08:00 +19°C° 0.4 mm 0 mps 648 mmHg 92%
    09:00 +22°C° 0.4 mm 1 mps 649 mmHg 90%
    10:00 +22°C° 0.4 mm 1 mps 649 mmHg 88%
    11:00 +23°C° 0.7 mm 1 mps 648 mmHg 87%
    12:00 +24°C° 0.7 mm 1 mps 648 mmHg 85%
    13:00 +25°C° 0.7 mm 1 mps 647 mmHg 84%
    14:00 +24°C° 0.8 mm 1 mps 647 mmHg 85%
    15:00 +24°C° 0.8 mm 1 mps 646 mmHg 86%
    16:00 +24°C° 0.8 mm 1 mps 646 mmHg 87%
    17:00 +23°C° 1.7 mm 1 mps 646 mmHg 88%
    18:00 +22°C° 1.7 mm 1 mps 646 mmHg 90%
    19:00 +21°C° 1.7 mm 1 mps 647 mmHg 91%
    20:00 +21°C° 0.7 mm 1 mps 647 mmHg 91%
    21:00 +21°C° 0.7 mm 1 mps 647 mmHg 90%
    22:00 +20°C° 0.7 mm 1 mps 648 mmHg 89%
    23:00 +20°C° 1.1 mm 1 mps 648 mmHg 90%

    12 December, Thursday

    Time Temperature Precipitation Wind Pressure Humidity
    00:00 +20°C° 1.1 mm 1 mps 647 mmHg 91%
    01:00 +20°C° 1.1 mm 1 mps 647 mmHg 92%
    02:00 +20°C° 1.4 mm 1 mps 647 mmHg 92%
    03:00 +19°C° 1.4 mm 1 mps 647 mmHg 93%
    04:00 +19°C° 1.4 mm 1 mps 647 mmHg 94%
    05:00 +19°C° 1.9 mm 1 mps 647 mmHg 94%
    06:00 +19°C° 1.9 mm 1 mps 647 mmHg 94%
    07:00 +17°C° 1.9 mm 0 mps 648 mmHg 94%
    08:00 +21°C° 0.2 mm 1 mps 648 mmHg 90%
    09:00 +22°C° 0.2 mm 1 mps 649 mmHg 86%
    10:00 +24°C° 0.2 mm 2 mps 649 mmHg 82%
    11:00 +24°C° 0.4 mm 1 mps 648 mmHg 82%
    12:00 +24°C° 0.4 mm 1 mps 648 mmHg 83%
    13:00 +24°C° 0.4 mm 1 mps 647 mmHg 84%
    14:00 +24°C° 0.9 mm 1 mps 646 mmHg 84%
    15:00 +24°C° 0.9 mm 1 mps 646 mmHg 83%
    16:00 +24°C° 0.9 mm 1 mps 645 mmHg 83%
    17:00 +23°C° 0.3 mm 1 mps 646 mmHg 86%
    18:00 +22°C° 0.3 mm 1 mps 646 mmHg 88%
    19:00 +21°C° 0.3 mm 1 mps 646 mmHg 91%
    20:00 +20°C° 0.2 mm 1 mps 647 mmHg 90%
    21:00 +20°C° 0.2 mm 1 mps 647 mmHg 89%
    22:00 +20°C° 0.2 mm 1 mps 647 mmHg 88%
    23:00 +19°C° 0.3 mm 1 mps 647 mmHg 88%
    Show more